OCN135 HTZA-HKMO

Flight info

Callsign OCN135
Flight time 0h 34m
Altitude 21000
Route UVUKO UVUKO2A
Aircraft A332/H-SDE2E3FGHIJ3J4J5LM1OP2RWXYZ/LB1D1

Departure

Time 2026-05-08 09:43
Airport Abeid Amani Karume International Airport (HTZA)

Arrival

Time 2026-05-08 10:17
Airport Moi International Airport (HKMO)
Time Latitude Longitude Altitude Speed Heading
2026-05-08 09:16 -6.22330 39.22250 62 ft 0 kts 355°
2026-05-08 09:32 -6.22341 39.22251 59 ft 3 kts 354°
2026-05-08 09:33 -6.22361 39.22253 65 ft 3 kts 344°
2026-05-08 09:33 -6.22370 39.22260 48 ft 3 kts 11°
2026-05-08 09:33 -6.22386 39.22254 53 ft 3 kts 20°
2026-05-08 09:33 -6.22405 39.22247 53 ft 3 kts 22°
2026-05-08 09:34 -6.22423 39.22238 53 ft 3 kts 37°
2026-05-08 09:34 -6.22436 39.22226 53 ft 3 kts 77°
2026-05-08 09:34 -6.22437 39.22218 53 ft 1 kts 86°
2026-05-08 09:34 -6.22437 39.22217 53 ft 4 kts 86°
2026-05-08 09:38 -6.22437 39.22221 61 ft 1 kts 86°
2026-05-08 09:38 -6.22437 39.22225 54 ft 1 kts 86°
2026-05-08 09:39 -6.22435 39.22247 59 ft 6 kts 86°
2026-05-08 09:39 -6.22422 39.22314 55 ft 14 kts 56°
2026-05-08 09:39 -6.22312 39.22332 57 ft 18 kts 354°
2026-05-08 09:39 -6.22181 39.22318 56 ft 19 kts 354°
2026-05-08 09:40 -6.22044 39.22305 58 ft 20 kts 354°
2026-05-08 09:40 -6.21897 39.22290 60 ft 22 kts 354°
2026-05-08 09:40 -6.21771 39.22300 55 ft 11 kts 48°
2026-05-08 09:40 -6.21760 39.22344 62 ft 4 kts 88°
2026-05-08 09:41 -6.21759 39.22371 62 ft 4 kts 88°
2026-05-08 09:41 -6.21759 39.22396 61 ft 4 kts 88°
2026-05-08 09:41 -6.21758 39.22423 64 ft 4 kts 89°
2026-05-08 09:41 -6.21766 39.22438 59 ft 2 kts 134°
2026-05-08 09:42 -6.21790 39.22448 60 ft 8 kts 161°
2026-05-08 09:42 -6.21917 39.22463 63 ft 45 kts 174°
2026-05-08 09:42 -6.22528 39.22524 56 ft 129 kts 174°
2026-05-08 09:42 -6.23611 39.22628 419 ft 171 kts 176°
2026-05-08 09:43 -6.24807 39.22729 1513 ft 172 kts 174°
2026-05-08 09:43 -6.25990 39.22855 2697 ft 172 kts 168°
2026-05-08 09:43 -6.26930 39.23526 3492 ft 173 kts 119°
2026-05-08 09:43 -6.27274 39.24760 3829 ft 198 kts 97°
2026-05-08 09:44 -6.27262 39.26254 4069 ft 230 kts 89°
2026-05-08 09:44 -6.27116 39.27952 4476 ft 256 kts 82°
2026-05-08 09:44 -6.26606 39.29682 5173 ft 269 kts 66°
2026-05-08 09:44 -6.25402 39.31146 5985 ft 280 kts 37°
2026-05-08 09:45 -6.23543 39.31865 6842 ft 287 kts 12°
2026-05-08 09:45 -6.21549 39.32152 7705 ft 292 kts
2026-05-08 09:45 -6.19510 39.32374 8566 ft 297 kts
2026-05-08 09:45 -6.17438 39.32598 9483 ft 302 kts
2026-05-08 09:46 -6.15338 39.32833 10285 ft 309 kts
2026-05-08 09:46 -6.13132 39.33087 10691 ft 330 kts
2026-05-08 09:46 -6.10796 39.33362 11177 ft 344 kts
2026-05-08 09:46 -6.08390 39.33647 11874 ft 351 kts
2026-05-08 09:47 -6.05945 39.33937 12638 ft 356 kts
2026-05-08 09:47 -6.03475 39.34231 13398 ft 360 kts
2026-05-08 09:47 -6.00972 39.34529 14127 ft 364 kts
2026-05-08 09:47 -5.98445 39.34831 14806 ft 367 kts
2026-05-08 09:48 -5.95898 39.35134 15495 ft 370 kts
2026-05-08 09:48 -5.93368 39.35436 16187 ft 372 kts
2026-05-08 09:48 -5.90785 39.35745 16850 ft 375 kts
2026-05-08 09:48 -5.88150 39.36059 17569 ft 377 kts
2026-05-08 09:49 -5.85578 39.36366 18254 ft 378 kts
2026-05-08 09:49 -5.82919 39.36683 18810 ft 381 kts
2026-05-08 09:49 -5.80277 39.36998 19334 ft 384 kts
2026-05-08 09:49 -5.77610 39.37316 19858 ft 387 kts
2026-05-08 09:50 -5.74922 39.37636 20383 ft 390 kts
2026-05-08 09:50 -5.72214 39.37959 20807 ft 393 kts
2026-05-08 09:50 -5.69508 39.38281 20952 ft 386 kts
2026-05-08 09:50 -5.66903 39.38589 20964 ft 369 kts
2026-05-08 09:51 -5.64389 39.38887 20964 ft 361 kts
2026-05-08 09:51 -5.61904 39.39184 20966 ft 360 kts
2026-05-08 09:51 -5.59415 39.39481 20967 ft 360 kts
2026-05-08 09:51 -5.56928 39.39778 20969 ft 360 kts
2026-05-08 09:52 -5.54437 39.40075 20965 ft 360 kts
2026-05-08 09:52 -5.51948 39.40372 20960 ft 360 kts
2026-05-08 09:52 -5.49455 39.40669 20960 ft 360 kts
2026-05-08 09:52 -5.46968 39.40965 20961 ft 360 kts
2026-05-08 09:53 -5.44478 39.41261 20961 ft 360 kts
2026-05-08 09:53 -5.41988 39.41558 20960 ft 360 kts
2026-05-08 09:53 -5.39498 39.41854 20958 ft 360 kts
2026-05-08 09:53 -5.37010 39.42150 20957 ft 360 kts
2026-05-08 09:54 -5.34520 39.42447 20959 ft 360 kts
2026-05-08 09:54 -5.32030 39.42743 20958 ft 360 kts
2026-05-08 09:54 -5.29573 39.43035 20958 ft 360 kts
2026-05-08 09:54 -5.27049 39.43336 20954 ft 360 kts
2026-05-08 09:55 -5.24558 39.43632 20957 ft 361 kts
2026-05-08 09:55 -5.22066 39.43929 20954 ft 361 kts
2026-05-08 09:55 -5.19574 39.44225 20956 ft 361 kts
2026-05-08 09:55 -5.17085 39.44521 20953 ft 361 kts
2026-05-08 09:56 -5.14592 39.44818 20951 ft 361 kts
2026-05-08 09:56 -5.12098 39.45114 20952 ft 361 kts
2026-05-08 09:56 -5.09608 39.45411 20953 ft 361 kts
2026-05-08 09:56 -5.07115 39.45707 20953 ft 361 kts
2026-05-08 09:57 -5.02130 39.46300 20950 ft 361 kts
2026-05-08 09:57 -4.99638 39.46596 20950 ft 361 kts
2026-05-08 09:57 -4.97144 39.46893 20950 ft 361 kts
2026-05-08 09:58 -4.94649 39.47189 20948 ft 361 kts
2026-05-08 09:58 -4.92157 39.47486 20944 ft 361 kts
2026-05-08 09:58 -4.89658 39.47783 20943 ft 361 kts
2026-05-08 09:58 -4.87166 39.48079 20944 ft 361 kts
2026-05-08 09:59 -4.84670 39.48376 20945 ft 361 kts
2026-05-08 09:59 -4.82149 39.48676 20827 ft 374 kts
2026-05-08 09:59 -4.79499 39.48993 20606 ft 390 kts
2026-05-08 09:59 -4.76788 39.49315 20370 ft 393 kts
2026-05-08 10:00 -4.74078 39.49636 20141 ft 391 kts
2026-05-08 10:00 -4.71437 39.50085 19898 ft 379 kts 17°
2026-05-08 10:00 -4.69074 39.51143 19663 ft 369 kts 34°
2026-05-08 10:00 -4.67019 39.52667 19436 ft 368 kts 40°
2026-05-08 10:01 -4.65034 39.54290 19203 ft 369 kts 40°
2026-05-08 10:01 -4.63059 39.55925 18987 ft 368 kts 40°
2026-05-08 10:01 -4.61085 39.57554 18775 ft 367 kts 40°
2026-05-08 10:01 -4.59114 39.59175 18501 ft 366 kts 40°
2026-05-08 10:02 -4.57152 39.60786 18059 ft 364 kts 40°
2026-05-08 10:02 -4.55198 39.62387 17551 ft 362 kts 40°
2026-05-08 10:02 -4.53258 39.63976 17098 ft 359 kts 40°
2026-05-08 10:02 -4.51333 39.65551 16640 ft 356 kts 40°
2026-05-08 10:03 -4.49419 39.67117 16179 ft 355 kts 40°
2026-05-08 10:03 -4.47511 39.68678 15727 ft 353 kts 40°
2026-05-08 10:03 -4.45610 39.70234 15243 ft 352 kts 40°
2026-05-08 10:03 -4.43716 39.71782 14794 ft 350 kts 40°
2026-05-08 10:04 -4.41830 39.73325 14352 ft 349 kts 40°
2026-05-08 10:04 -4.39955 39.74858 14023 ft 344 kts 40°
2026-05-08 10:04 -4.38129 39.76351 13847 ft 334 kts 40°
2026-05-08 10:04 -4.36357 39.77799 13691 ft 324 kts 40°
2026-05-08 10:05 -4.34640 39.79202 13524 ft 314 kts 40°
2026-05-08 10:05 -4.32957 39.80579 13182 ft 311 kts 40°
2026-05-08 10:05 -4.31288 39.81944 12844 ft 308 kts 40°
2026-05-08 10:05 -4.29633 39.83297 12481 ft 307 kts 40°
2026-05-08 10:06 -4.27979 39.84650 12100 ft 306 kts 40°
2026-05-08 10:06 -4.26341 39.85989 11813 ft 302 kts 40°
2026-05-08 10:06 -4.24711 39.87321 11362 ft 304 kts 40°
2026-05-08 10:06 -4.23050 39.88679 10771 ft 312 kts 40°
2026-05-08 10:07 -4.21357 39.90064 10264 ft 315 kts 40°
2026-05-08 10:07 -4.19662 39.91448 9945 ft 312 kts 40°
2026-05-08 10:07 -4.18007 39.92794 9810 ft 302 kts 39°
2026-05-08 10:07 -4.16227 39.93861 9518 ft 299 kts 20°
2026-05-08 10:08 -4.14889 39.94146 9358 ft 297 kts
2026-05-08 10:08 -4.12882 39.93820 9075 ft 292 kts 337°
2026-05-08 10:08 -4.11063 39.92928 8723 ft 291 kts 329°
2026-05-08 10:08 -4.09302 39.91921 8386 ft 292 kts 328°
2026-05-08 10:09 -4.07551 39.90910 8063 ft 289 kts 328°
2026-05-08 10:09 -4.05808 39.89911 7712 ft 288 kts 329°
2026-05-08 10:09 -4.04069 39.88921 7363 ft 287 kts 329°
2026-05-08 10:09 -4.02332 39.87938 7009 ft 287 kts 329°
2026-05-08 10:10 -4.00597 39.86959 6661 ft 286 kts 329°
2026-05-08 10:10 -3.98865 39.85985 6311 ft 285 kts 329°
2026-05-08 10:10 -3.97139 39.85014 5938 ft 284 kts 329°
2026-05-08 10:10 -3.95416 39.84046 5574 ft 284 kts 329°
2026-05-08 10:11 -3.93695 39.83079 5207 ft 283 kts 329°
2026-05-08 10:11 -3.91979 39.82116 4851 ft 282 kts 329°
2026-05-08 10:11 -3.90272 39.81148 4481 ft 282 kts 327°
2026-05-08 10:11 -3.88791 39.79878 4116 ft 281 kts 303°
2026-05-08 10:12 -3.88091 39.78109 3780 ft 271 kts 271°
2026-05-08 10:12 -3.88159 39.76267 3533 ft 261 kts 259°
2026-05-08 10:12 -3.88405 39.74484 3294 ft 257 kts 257°
2026-05-08 10:12 -3.88669 39.72732 3055 ft 252 kts 257°
2026-05-08 10:13 -3.88921 39.71025 2955 ft 242 kts 258°
2026-05-08 10:13 -3.89151 39.69406 2970 ft 227 kts 258°
2026-05-08 10:13 -3.89475 39.67912 2956 ft 215 kts 244°
2026-05-08 10:13 -3.90376 39.66774 2926 ft 207 kts 213°
2026-05-08 10:14 -3.91588 39.66059 2596 ft 200 kts 205°
2026-05-08 10:14 -3.92829 39.65410 2075 ft 200 kts 206°
2026-05-08 10:14 -3.93989 39.64755 1790 ft 183 kts 207°
2026-05-08 10:14 -3.95060 39.64150 1577 ft 170 kts 206°
2026-05-08 10:15 -3.96055 39.63593 1384 ft 158 kts 207°
2026-05-08 10:15 -3.96988 39.63069 1175 ft 149 kts 207°
2026-05-08 10:15 -3.97855 39.62581 1002 ft 136 kts 208°
2026-05-08 10:15 -3.98673 39.62122 837 ft 134 kts 209°
2026-05-08 10:16 -3.99478 39.61670 667 ft 132 kts 207°
2026-05-08 10:16 -4.00281 39.61219 489 ft 133 kts 208°
2026-05-08 10:16 -4.01070 39.60776 299 ft 130 kts 207°
2026-05-08 10:16 -4.01867 39.60330 221 ft 130 kts 206°
2026-05-08 10:17 -4.02584 39.59932 217 ft 85 kts 209°
2026-05-08 10:17 -4.02844 39.59770 217 ft 13 kts 219°
2026-05-08 10:17 -4.02873 39.59782 216 ft 2 kts 92°
2026-05-08 10:17 -4.02861 39.59795 214 ft 5 kts 38°
2026-05-08 10:18 -4.02798 39.59816 217 ft 13 kts 30°
2026-05-08 10:18 -4.02699 39.59880 217 ft 19 kts 60°
2026-05-08 10:18 -4.02753 39.59960 214 ft 13 kts 149°
2026-05-08 10:18 -4.02827 39.60013 220 ft 14 kts 129°
2026-05-08 10:19 -4.02878 39.60099 217 ft 15 kts 120°
2026-05-08 10:19 -4.02930 39.60194 220 ft 16 kts 119°
2026-05-08 10:19 -4.03015 39.60210 215 ft 13 kts 197°
2026-05-08 10:20 -4.03172 39.60145 218 ft 7 kts 156°
2026-05-08 10:20 -4.03198 39.60185 214 ft 7 kts 119°
2026-05-08 10:20 -4.03207 39.60202 214 ft 0 kts 119°